• In India
  • List of Countries
  • For 7 days
  • Water Temperature
  • Satellite Maps
  • Weather Map
  • Weather Widgets
  • user-avatar
    Login

    Hourly Weather Mrozow

    Today, 19 September, Wednesday

    Time Temperature Precipitation Wind Pressure Humidity
    00:00 +20°C° 0 mm 4 mps 752 mmHg 63%
    01:00 +19°C° 0 mm 3 mps 752 mmHg 63%
    02:00 +19°C° 0 mm 3 mps 752 mmHg 63%
    03:00 +19°C° 0 mm 3 mps 752 mmHg 63%
    04:00 +19°C° 0 mm 3 mps 752 mmHg 62%
    05:00 +19°C° 0 mm 3 mps 752 mmHg 63%
    06:00 +19°C° 0 mm 3 mps 752 mmHg 64%
    07:00 +20°C° 0 mm 3 mps 753 mmHg 63%
    08:00 +23°C° 0 mm 2 mps 753 mmHg 59%
    09:00 +24°C° 0 mm 2 mps 753 mmHg 55%
    10:00 +26°C° 0 mm 2 mps 753 mmHg 51%
    11:00 +27°C° 0 mm 2 mps 753 mmHg 48%
    12:00 +29°C° 0 mm 2 mps 753 mmHg 46%
    13:00 +30°C° 0 mm 2 mps 753 mmHg 44%
    14:00 +30°C° 0 mm 2 mps 753 mmHg 44%
    15:00 +29°C° 0 mm 2 mps 753 mmHg 45%
    16:00 +29°C° 0 mm 2 mps 753 mmHg 45%
    17:00 +28°C° 0 mm 1 mps 753 mmHg 51%
    18:00 +26°C° 0 mm 1 mps 753 mmHg 56%
    19:00 +24°C° 0 mm 1 mps 753 mmHg 61%
    20:00 +23°C° 0 mm 1 mps 753 mmHg 63%
    21:00 +23°C° 0 mm 1 mps 754 mmHg 65%
    22:00 +21°C° 0 mm 2 mps 754 mmHg 67%
    23:00 +21°C° 0 mm 2 mps 754 mmHg 69%

    Tomorrow, 20 September, Thursday

    Time Temperature Precipitation Wind Pressure Humidity
    00:00 +20°C° 0 mm 2 mps 754 mmHg 70%
    01:00 +20°C° 0 mm 2 mps 754 mmHg 71%
    02:00 +20°C° 0 mm 2 mps 754 mmHg 72%
    03:00 +19°C° 0 mm 2 mps 754 mmHg 73%
    04:00 +19°C° 0 mm 2 mps 754 mmHg 74%
    05:00 +20°C° 0 mm 2 mps 754 mmHg 73%
    06:00 +20°C° 0 mm 2 mps 754 mmHg 72%
    07:00 +20°C° 0 mm 2 mps 754 mmHg 72%
    08:00 +23°C° 0 mm 2 mps 754 mmHg 65%
    09:00 +25°C° 0 mm 1 mps 754 mmHg 58%
    10:00 +28°C° 0 mm 1 mps 754 mmHg 51%
    11:00 +28°C° 0 mm 1 mps 754 mmHg 48%
    12:00 +29°C° 0 mm 1 mps 754 mmHg 44%
    13:00 +30°C° 0 mm 1 mps 753 mmHg 41%
    14:00 +30°C° 0 mm 1 mps 753 mmHg 41%
    15:00 +30°C° 0 mm 1 mps 753 mmHg 41%
    16:00 +30°C° 0 mm 1 mps 753 mmHg 42%
    17:00 +28°C° 0 mm 2 mps 753 mmHg 46%
    18:00 +26°C° 0 mm 2 mps 753 mmHg 51%
    19:00 +24°C° 0 mm 2 mps 752 mmHg 55%
    20:00 +24°C° 0 mm 2 mps 752 mmHg 57%
    21:00 +23°C° 0 mm 2 mps 752 mmHg 59%
    22:00 +21°C° 0 mm 2 mps 752 mmHg 61%
    23:00 +21°C° 0 mm 2 mps 752 mmHg 63%

    Day after tomorrow, 21 September, Friday

    Time Temperature Precipitation Wind Pressure Humidity
    00:00 +20°C° 0 mm 2 mps 752 mmHg 65%
    01:00 +20°C° 0 mm 2 mps 752 mmHg 67%
    02:00 +20°C° 0 mm 3 mps 751 mmHg 69%
    03:00 +19°C° 0 mm 3 mps 751 mmHg 71%
    04:00 +19°C° 0 mm 3 mps 751 mmHg 74%
    05:00 +19°C° 0 mm 3 mps 750 mmHg 73%
    06:00 +20°C° 0 mm 3 mps 750 mmHg 72%
    07:00 +20°C° 0 mm 3 mps 750 mmHg 71%
    08:00 +22°C° 0 mm 4 mps 749 mmHg 63%
    09:00 +25°C° 0 mm 5 mps 749 mmHg 56%
    10:00 +27°C° 0 mm 5 mps 749 mmHg 48%
    11:00 +28°C° 0 mm 6 mps 748 mmHg 45%
    12:00 +29°C° 0 mm 6 mps 748 mmHg 42%
    13:00 +30°C° 0 mm 6 mps 747 mmHg 39%
    14:00 +30°C° 0 mm 6 mps 747 mmHg 41%
    15:00 +29°C° 0 mm 5 mps 747 mmHg 42%
    16:00 +29°C° 0 mm 5 mps 746 mmHg 44%
    17:00 +28°C° 0 mm 5 mps 746 mmHg 47%
    18:00 +26°C° 0 mm 5 mps 747 mmHg 51%
    19:00 +25°C° 0 mm 4 mps 747 mmHg 55%
    20:00 +23°C° 0.1 mm 5 mps 748 mmHg 61%
    21:00 +21°C° 0.1 mm 5 mps 748 mmHg 67%
    22:00 +20°C° 0.1 mm 5 mps 749 mmHg 74%
    23:00 +19°C° 0.1 mm 5 mps 750 mmHg 73%

    22 September, Saturday

    Time Temperature Precipitation Wind Pressure Humidity
    00:00 +16°C° 0.1 mm 5 mps 750 mmHg 72%
    01:00 +15°C° 0.1 mm 5 mps 751 mmHg 72%
    02:00 +15°C° 0.7 mm 4 mps 751 mmHg 74%
    03:00 +14°C° 0.7 mm 4 mps 752 mmHg 77%
    04:00 +13°C° 0.7 mm 3 mps 752 mmHg 80%
    05:00 +13°C° 0.3 mm 3 mps 752 mmHg 79%
    06:00 +13°C° 0.3 mm 3 mps 753 mmHg 79%
    07:00 +13°C° 0.3 mm 3 mps 753 mmHg 78%
    08:00 +13°C° 0.2 mm 4 mps 753 mmHg 74%
    09:00 +13°C° 0.2 mm 4 mps 753 mmHg 70%
    10:00 +14°C° 0.2 mm 5 mps 754 mmHg 67%
    11:00 +15°C° 0.1 mm 5 mps 753 mmHg 61%
    12:00 +16°C° 0.1 mm 5 mps 753 mmHg 55%
    13:00 +17°C° 0.1 mm 5 mps 753 mmHg 49%
    14:00 +17°C° 0.1 mm 5 mps 753 mmHg 47%
    15:00 +17°C° 0.1 mm 5 mps 752 mmHg 46%
    16:00 +17°C° 0.1 mm 5 mps 752 mmHg 45%
    17:00 +15°C° 0 mm 4 mps 752 mmHg 49%
    18:00 +14°C° 0 mm 3 mps 753 mmHg 53%
    19:00 +13°C° 0 mm 3 mps 753 mmHg 56%
    20:00 +12°C° 0 mm 3 mps 753 mmHg 58%
    21:00 +12°C° 0 mm 3 mps 754 mmHg 59%
    22:00 +11°C° 0 mm 3 mps 754 mmHg 61%
    23:00 +11°C° 0 mm 3 mps 754 mmHg 62%

    23 September, Sunday

    Time Temperature Precipitation Wind Pressure Humidity
    00:00 +10°C° 0 mm 3 mps 754 mmHg 63%
    01:00 +10°C° 0 mm 3 mps 754 mmHg 65%
    02:00 +9°C° 0 mm 3 mps 754 mmHg 66%
    03:00 +9°C° 0 mm 3 mps 754 mmHg 68%
    04:00 +9°C° 0 mm 3 mps 754 mmHg 70%
    05:00 +9°C° 0 mm 2 mps 754 mmHg 70%
    06:00 +9°C° 0 mm 2 mps 754 mmHg 69%
    07:00 +10°C° 0 mm 2 mps 754 mmHg 69%
    08:00 +13°C° 0 mm 2 mps 753 mmHg 63%
    09:00 +14°C° 0 mm 2 mps 753 mmHg 56%
    10:00 +16°C° 0 mm 3 mps 753 mmHg 49%
    11:00 +17°C° 0 mm 3 mps 752 mmHg 46%
    12:00 +18°C° 0 mm 4 mps 751 mmHg 43%
    13:00 +19°C° 0 mm 5 mps 750 mmHg 39%
    14:00 +19°C° 0 mm 5 mps 749 mmHg 41%
    15:00 +19°C° 0 mm 5 mps 747 mmHg 43%
    16:00 +19°C° 0 mm 6 mps 746 mmHg 45%
    17:00 +17°C° 0 mm 6 mps 745 mmHg 49%
    18:00 +17°C° 0 mm 7 mps 744 mmHg 52%
    19:00 +16°C° 0 mm 7 mps 743 mmHg 55%
    20:00 +16°C° 0.1 mm 7 mps 742 mmHg 56%
    21:00 +16°C° 0.1 mm 7 mps 741 mmHg 57%
    22:00 +17°C° 0.1 mm 7 mps 740 mmHg 58%
    23:00 +16°C° 0.7 mm 6 mps 740 mmHg 64%

    24 September, Monday

    Time Temperature Precipitation Wind Pressure Humidity
    00:00 +16°C° 0.7 mm 6 mps 739 mmHg 69%
    01:00 +16°C° 0.7 mm 5 mps 739 mmHg 74%
    02:00 +15°C° 0.5 mm 5 mps 739 mmHg 76%
    03:00 +15°C° 0.5 mm 5 mps 739 mmHg 77%
    04:00 +14°C° 0.5 mm 5 mps 739 mmHg 79%
    05:00 +14°C° 0.2 mm 5 mps 739 mmHg 78%
    06:00 +13°C° 0.2 mm 5 mps 739 mmHg 78%
    07:00 +12°C° 0.2 mm 5 mps 739 mmHg 77%
    08:00 +12°C° 0.6 mm 5 mps 739 mmHg 77%
    09:00 +11°C° 0.6 mm 6 mps 739 mmHg 76%
    10:00 +11°C° 0.6 mm 7 mps 739 mmHg 75%
    11:00 +12°C° 0 mm 7 mps 739 mmHg 70%
    12:00 +13°C° 0 mm 8 mps 739 mmHg 65%
    13:00 +16°C° 0 mm 8 mps 739 mmHg 60%
    14:00 +15°C° 0.1 mm 8 mps 739 mmHg 64%
    15:00 +13°C° 0.1 mm 8 mps 740 mmHg 67%
    16:00 +13°C° 0.1 mm 8 mps 740 mmHg 71%
    17:00 +12°C° 0.1 mm 8 mps 741 mmHg 71%
    18:00 +11°C° 0.1 mm 8 mps 742 mmHg 70%
    19:00 +10°C° 0.1 mm 8 mps 744 mmHg 70%
    20:00 +10°C° 0 mm 8 mps 744 mmHg 68%
    21:00 +10°C° 0 mm 8 mps 745 mmHg 67%
    22:00 +9°C° 0 mm 8 mps 746 mmHg 65%
    23:00 +8°C° 0 mm 9 mps 747 mmHg 67%
    Show more